Content
SEND FEEDBACK

Daily
Averages
Monthly
Summary
Mexico

CANCUN, QUINTANA ROO


Home > North America > Mexico > Quintana Roo
Elevation: 9 meters     Latitude: 21 09N     Longitude: 086 49W

WEATHER
 
SELECT A DAY
Number of Records: 167,736;   Date Range: 1/1/95 - 12/17/14
 
SHARE

PRINT THIS DATA

[ ← Previous Day ]
WEATHER ALMANAC - 17 MAY, 2013
[ Next Day → ]
[ °F ]   °C
Weather ElementAverageHighLow
Temperature27.7 °C30 °C (11:41 am)24 °C (5:40 am)
Dewpoint22.5 °C23 °C (1:42 am)21 °C (4:42 pm)
Humidity73.9 %89 % (4:46 am)58 % (4:42 pm)
Barometer1014.9 hPa1016.3 hPa (10:42 am)1013.9 hPa (2:40 am)
Wind Speed15.3 km/h27.8 km/h (1:40 pm)
Weather ElementAverage
Visibility11.3 km
Wind DirectionESE (123 °)

Weather ElementTotal
Precipitation---
Cooling Degree Days8.7 (Base 18.3)
Growing Degree Days17 (Base 10)
Averaged from 23 records on 17 May, 2013
WEATHER CONDITIONS BREAKOUT
WIND DIRECTION BREAKOUT
WEATHER BY HOUR - 17 MAY, 2013
[ °F ]   °C
Local TimeTemperatureDewpointHumidityBarometerVisibilityWind DirectionWind SpeedGust SpeedPrecipitationEventsConditions
1:42 AM26 °C23 °C83 %1014.2 hPa11.3 kmESE (120°)7.4 km/hScattered Clouds
2:40 AM26 °C23 °C83 %1013.9 hPa11.3 kmESE (120°)7.4 km/hScattered Clouds
3:49 AM26 °C23 °C83 %1013.9 hPa11.3 kmESE (110°)9.3 km/hScattered Clouds
4:46 AM25 °C23 °C89 %1013.9 hPa11.3 kmSE (130°)5.6 km/hScattered Clouds
5:40 AM24 °C22 °C89 %1014.2 hPa11.3 kmEast (90°)3.7 km/hScattered Clouds
6:46 AM26 °C23 °C83 %1014.2 hPa11.3 kmESE (110°)7.4 km/hScattered Clouds
7:41 AM27 °C23 °C79 %1014.9 hPa11.3 kmEast (100°)9.3 km/hScattered Clouds
8:44 AM28 °C23 °C74 %1015.2 hPa11.3 kmESE (110°)16.7 km/hMostly Cloudy
9:44 AM29 °C23 °C70 %1015.6 hPa11.3 kmESE (120°)16.7 km/hMostly Cloudy
10:42 AM29 °C23 °C70 %1016.3 hPa11.3 kmSSE (150°)20.4 km/hMostly Cloudy
11:41 AM30 °C23 °C66 %1016.3 hPa11.3 kmESE (120°)16.7 km/hMostly Cloudy
12:43 PM30 °C23 °C66 %1015.6 hPa11.3 kmSE (140°)24.1 km/hMostly Cloudy
1:40 PM30 °C22 °C62 %1015.2 hPa11.3 kmSE (140°)27.8 km/hMostly Cloudy
2:45 PM30 °C22 °C62 %1014.6 hPa11.3 kmESE (110°)16.7 km/hScattered Clouds
3:43 PM29 °C22 °C66 %1014.6 hPa11.3 kmSE (130°)24.1 km/hScattered Clouds
4:42 PM30 °C21 °C58 %1014.2 hPa11.3 kmSSE (150°)20.4 km/hPartly Cloudy
5:42 PM29 °C22 °C66 %1014.2 hPa11.3 kmSE (130°)25.9 km/hClear
6:43 PM28 °C22 °C70 %1014.9 hPa11.3 kmSE (130°)20.4 km/hClear
7:42 PM27 °C23 °C79 %1014.9 hPa11.3 kmESE (120°)14.8 km/hClear
8:41 PM27 °C22 °C74 %1015.2 hPa11.3 kmSE (140°)13 km/hClear
9:48 PM27 °C22 °C74 %1014.6 hPa11.3 kmESE (110°)20.4 km/hClear
10:47 PM27 °C22 °C74 %1015.9 hPa11.3 kmESE (120°)13 km/hClear
11:46 PM27 °C23 °C79 %1015.9 hPa11.3 kmSE (130°)11.1 km/hClear
Hourly data recorded from MMUN, located 0 kilometers away from Cancun, Quintana Roo







STORIES FROM OUR PARTNERS